Weather History for Opelousas St Landry Parish Ai, LA

Change the Weather History Date:

Saturday, May 17, 2014

  Actual Average (KLFT) Record (KLFT)
Temperature  
Mean Temperature 70 °F 77 °F  
Max Temperature 81 °F 87 °F 94 °F (1998)
Min Temperature 59 °F 67 °F 50 °F (1926)
Cooling Degree Days 5 12  
Month to date cooling degree days 172  
Year to date cooling degree days 426  
Growing Degree Days 20 (Base 50)    
Moisture  
Dew Point 60 °F    
Average Humidity 72    
Maximum Humidity 95    
Minimum Humidity 47    
Precipitation  
Precipitation 0.00 in 0.15 in 3.00 in (1904)
Month to date precipitation 2.48  
Year to date precipitation 20.32  
Sea Level Pressure  
Sea Level Pressure 30.10 in    
Wind  
Wind Speed 8 mph (South)    
Max Wind Speed 15 mph    
Max Gust Speed 23 mph    
Visibility 10 miles    
Events      
T = Trace of Precipitation, MM = Missing Value Source: NWS Daily Summary

Daily Weather History Graph

Daily Weather History Graph

Search for Another Location

Airport:

Trip Planner

Search our weather history database for the weather conditions in past years. The results will help you decide how hot, cold, wet, or windy it might be!

Date:

Astronomy

May. 17, 2014 Rise Set
Actual Time 6:12 AM CDT 7:57 PM CDT
Civil Twilight 5:46 AM CDT 8:23 PM CDT
Nautical Twilight 5:14 AM CDT 8:55 PM CDT
Astronomical Twilight 4:40 AM CDT 9:29 PM CDT
Moon 11:00 PM CDT (5/17) 8:55 AM CDT (5/17)
Length of Visible Light 14h 37m
Length of Day
13h 44m
Waning Gibbous, 89% of the Moon is Illuminated
May 17
Waning Gibbous
May 21
Last Quarter
May 28
New
Jun 5
First Quarter
Jun 12
Full

Hourly Weather History & Observations

Time (CDT) Temp. Heat Index Dew Point Humidity Pressure Visibility Wind Dir Wind Speed Gust Speed Precip Events Conditions
12:15 AM 61.5 °F - 56.5 °F 83% 30.10 in 10.0 mi South 6.9 mph - N/A   Clear
12:35 AM 61.7 °F - 56.5 °F 83% 30.10 in 10.0 mi South 6.9 mph - N/A   Clear
12:55 AM 61.2 °F - 56.3 °F 84% 30.09 in 10.0 mi South 6.9 mph - N/A   Clear
1:15 AM 60.8 °F - 56.5 °F 86% 30.09 in 10.0 mi South 5.8 mph - N/A   Clear
1:35 AM 60.8 °F - 56.7 °F 86% 30.08 in 10.0 mi South 8.1 mph - N/A   Clear
1:55 AM 60.8 °F - 56.7 °F 86% 30.07 in 10.0 mi South 6.9 mph - N/A   Clear
2:15 AM 60.1 °F - 56.5 °F 88% 30.07 in 10.0 mi South 4.6 mph - N/A   Clear
2:35 AM 59.4 °F - 56.3 °F 90% 30.06 in 10.0 mi South 5.8 mph - N/A   Clear
2:55 AM 59.0 °F - 56.3 °F 91% 30.07 in 10.0 mi South 4.6 mph - N/A   Clear
3:15 AM 59.0 °F - 56.7 °F 92% 30.07 in 10.0 mi South 3.5 mph - N/A   Clear
3:35 AM 59.2 °F - 56.7 °F 91% 30.07 in 10.0 mi South 4.6 mph - N/A   Clear
3:55 AM 59.2 °F - 57.2 °F 93% 30.08 in 10.0 mi South 5.8 mph - N/A   Clear
4:15 AM 59.5 °F - 57.6 °F 93% 30.08 in 10.0 mi South 5.8 mph - N/A   Clear
4:35 AM 59.4 °F - 57.6 °F 94% 30.08 in 10.0 mi South 5.8 mph - N/A   Clear
4:55 AM 59.4 °F - 57.6 °F 94% 30.08 in 10.0 mi South 5.8 mph - N/A   Clear
5:15 AM 59.4 °F - 57.6 °F 94% 30.08 in 10.0 mi South 4.6 mph - N/A   Clear
5:35 AM 59.0 °F - 57.4 °F 94% 30.08 in 10.0 mi South 5.8 mph - N/A   Clear
5:55 AM 59.0 °F - 57.6 °F 95% 30.08 in 10.0 mi South 4.6 mph - N/A   Clear
6:15 AM 59.5 °F - 58.1 °F 95% 30.09 in 10.0 mi South 4.6 mph - N/A   Clear
6:35 AM 59.9 °F - 58.5 °F 95% 30.10 in 10.0 mi SE 4.6 mph - N/A   Scattered Clouds
6:55 AM 60.8 °F - 59.0 °F 94% 30.11 in 10.0 mi ESE 3.5 mph - N/A   Scattered Clouds
7:15 AM 61.7 °F - 59.5 °F 93% 30.11 in 10.0 mi ESE 3.5 mph - N/A   Clear
7:35 AM 63.9 °F - 60.8 °F 90% 30.11 in 10.0 mi SE 4.6 mph - N/A   Clear
7:55 AM 65.8 °F - 61.5 °F 86% 30.11 in 10.0 mi SSE 5.8 mph - N/A   Clear
8:15 AM 67.6 °F - 62.2 °F 83% 30.12 in 10.0 mi SSE 5.8 mph - N/A   Clear
8:35 AM 69.3 °F - 62.6 °F 79% 30.12 in 10.0 mi South 6.9 mph - N/A   Clear
8:55 AM 70.9 °F - 62.8 °F 75% 30.13 in 10.0 mi South 5.8 mph - N/A   Clear
9:15 AM 71.8 °F - 62.8 °F 73% 30.13 in 10.0 mi SSW 10.4 mph 16.1 mph N/A   Scattered Clouds
9:35 AM 74.1 °F - 63.5 °F 69% 30.13 in 10.0 mi South 13.8 mph - N/A   Mostly Cloudy
9:55 AM 74.5 °F - 62.8 °F 67% 30.13 in 10.0 mi South 13.8 mph 19.6 mph N/A   Mostly Cloudy
10:15 AM 74.1 °F - 61.5 °F 65% 30.14 in 10.0 mi SSW 13.8 mph 20.7 mph N/A   Scattered Clouds
10:35 AM 75.2 °F - 61.2 °F 62% 30.14 in 10.0 mi SSW 12.7 mph 18.4 mph N/A   Scattered Clouds
10:55 AM 77.0 °F - 61.7 °F 59% 30.15 in 10.0 mi South 13.8 mph - N/A   Scattered Clouds
11:15 AM 77.5 °F - 61.9 °F 58% 30.15 in 10.0 mi SW 8.1 mph 16.1 mph N/A   Scattered Clouds
11:35 AM 77.2 °F - 60.6 °F 56% 30.15 in 10.0 mi SW 11.5 mph 18.4 mph N/A   Scattered Clouds
11:55 AM 78.6 °F - 61.2 °F 55% 30.14 in 10.0 mi SSW 13.8 mph 17.3 mph N/A   Mostly Cloudy
12:15 PM 77.7 °F - 59.9 °F 54% 30.14 in 10.0 mi SW 13.8 mph 20.7 mph N/A   Scattered Clouds
12:35 PM 79.7 °F - 60.4 °F 52% 30.14 in 10.0 mi SSW 11.5 mph 18.4 mph N/A   Scattered Clouds
12:55 PM 79.3 °F - 60.3 °F 52% 30.13 in 10.0 mi SSW 10.4 mph 20.7 mph N/A   Scattered Clouds
1:15 PM 79.7 °F - 59.7 °F 50% 30.12 in 10.0 mi SSW 13.8 mph 20.7 mph N/A   Scattered Clouds
1:35 PM 79.5 °F - 59.2 °F 50% 30.11 in 10.0 mi SSW 12.7 mph 19.6 mph N/A   Clear
1:55 PM 81.0 °F 81.6 °F 59.9 °F 49% 30.11 in 10.0 mi SSW 13.8 mph 19.6 mph N/A   Clear
2:15 PM 80.6 °F 81.2 °F 59.5 °F 49% 30.10 in 10.0 mi SW 15.0 mph 21.9 mph N/A   Clear
2:35 PM 80.8 °F 81.4 °F 60.1 °F 49% 30.09 in 10.0 mi SSW 5.8 mph 23.0 mph N/A   Clear
2:55 PM 81.1 °F 81.6 °F 59.9 °F 48% 30.09 in 10.0 mi SSW 10.4 mph 18.4 mph N/A   Scattered Clouds
3:15 PM 81.0 °F 81.6 °F 60.1 °F 49% 30.09 in 10.0 mi SSW 9.2 mph 19.6 mph N/A   Scattered Clouds
3:35 PM 81.1 °F 81.5 °F 59.0 °F 47% 30.08 in 10.0 mi South 13.8 mph 23.0 mph N/A   Clear
3:55 PM 79.9 °F - 59.2 °F 49% 30.08 in 10.0 mi SSW 13.8 mph 19.6 mph N/A   Clear
4:15 PM 81.1 °F 81.5 °F 59.4 °F 47% 30.08 in 10.0 mi SSW 15.0 mph 20.7 mph N/A   Scattered Clouds
4:35 PM 80.4 °F 81.1 °F 59.5 °F 49% 30.08 in 10.0 mi SW 12.7 mph 20.7 mph N/A   Scattered Clouds
4:55 PM 80.1 °F 81.0 °F 60.4 °F 51% 30.07 in 10.0 mi SW 10.4 mph 18.4 mph N/A   Scattered Clouds
5:15 PM 79.0 °F - 60.4 °F 53% 30.07 in 10.0 mi SSW 10.4 mph 16.1 mph N/A   Scattered Clouds
5:35 PM 78.6 °F - 59.5 °F 52% 30.07 in 10.0 mi SSW 13.8 mph - N/A   Scattered Clouds
5:55 PM 79.0 °F - 59.5 °F 51% 30.07 in 10.0 mi SSW 12.7 mph - N/A   Scattered Clouds
6:15 PM 77.7 °F - 60.4 °F 55% 30.08 in 10.0 mi SSW 11.5 mph 18.4 mph N/A   Scattered Clouds
6:35 PM 76.3 °F - 59.7 °F 56% 30.08 in 10.0 mi SSW 10.4 mph 16.1 mph N/A   Clear
6:55 PM 75.7 °F - 60.3 °F 59% 30.09 in 10.0 mi SSW 9.2 mph - N/A   Clear
7:15 PM 74.5 °F - 60.6 °F 62% 30.09 in 10.0 mi SSW 8.1 mph - N/A   Clear
7:35 PM 73.8 °F - 60.6 °F 63% 30.09 in 10.0 mi SSW 6.9 mph - N/A   Clear
7:55 PM 72.5 °F - 60.4 °F 66% 30.09 in 10.0 mi SSW 5.8 mph - N/A   Clear
8:15 PM 70.9 °F - 60.8 °F 70% 30.10 in 10.0 mi SSW 3.5 mph - N/A   Clear
8:35 PM 69.6 °F - 61.0 °F 74% 30.10 in 10.0 mi South 4.6 mph - N/A   Clear
8:55 PM 68.9 °F - 61.0 °F 76% 30.11 in 10.0 mi South 4.6 mph - N/A   Clear
9:15 PM 68.0 °F - 61.0 °F 78% 30.11 in 10.0 mi South 4.6 mph - N/A   Clear
9:55 PM 67.1 °F - 61.0 °F 81% 30.12 in 10.0 mi South 4.6 mph - N/A   Clear
10:15 PM 66.6 °F - 61.2 °F 83% 30.12 in 10.0 mi SSE 5.8 mph - N/A   Clear
10:35 PM 65.8 °F - 61.3 °F 85% 30.12 in 10.0 mi SSE 4.6 mph - N/A   Clear
10:55 PM 65.5 °F - 61.7 °F 88% 30.12 in 10.0 mi SSE 3.5 mph - N/A   Clear
11:15 PM 65.3 °F - 61.7 °F 88% 30.12 in 10.0 mi SSE 5.8 mph - N/A   Clear
11:35 PM 64.9 °F - 62.1 °F 90% 30.12 in 10.0 mi SSE 5.8 mph - N/A   Clear
11:55 PM 65.3 °F - 62.4 °F 90% 30.12 in 10.0 mi SSE 5.8 mph - N/A   Clear